Flag for Nicaragua Weather past 2 weeks in Masaya, Nicaragua

Now
82 °F

Passing clouds.


Feels Like: 91 °F
Forecast: 74 / 86 °F
Wind: 7 mph from East

Location: Managua A. C. Sandino

Current Time: Sep 1, 2014 at 10:30:52 PM

Latest Report: Sep 1, 2014 at 8:00 PM


Visibility: N/A

Pressure: 29.83 "Hg

Humidity: 84%

Dew point: 77 °F

Location of MasayaLocation

Historic Weather in Masaya — Graph

°F

Masaya temperature yesterday

Maximum temperature yesterday: 91 °F (at 2:00 PM)
Minimum temperature yesterday: 75 °F (at 4:00 AM)
Average temperature yesterday: 84 °F

Past Weeks' High & Low Weather Summary

 TemperatureHumidityPressure
High95 °F (Aug 25, 3:00 PM)100% (Aug 28, 2:00 AM)29.95 "Hg (Aug 28, 2:00 AM)
Low72 °F (Aug 20, 7:00 PM)47% (Aug 25, 3:00 PM)29.68 "Hg (Aug 24, 5:00 PM)
Average82 °F78%29.83 "Hg
* Reported Aug 17 8:00 PM — Sep 1 8:00 PM, Masaya, Weather by CustomWeather, © 2014

Note: Actual official high and low records may vary slightly from our data, if they occured in-between our weather recording intervals... More about our weather records

Advertising

Masaya weather history for previous 24 hours

 ConditionsComfort  
Time TempWeatherWind HumidityBarometerVisibility
8:00 PM
Sep 1
82 °FPassing clouds.7 mph84%29.83 "HgN/A
7:00 PM82 °FPassing clouds.7 mph84%29.80 "HgN/A
6:00 PM84 °FPassing clouds.5 mph84%29.80 "HgN/A
5:00 PM86 °FPassing clouds.5 mph75%29.77 "HgN/A
4:01 PMN/AThunderstorms.12 mphN/AN/A6 mi
4:00 PM91 °FRain. Scattered clouds.12 mph63%29.77 "Hg6 mi
3:00 PM93 °FPassing clouds.9 mph56%29.77 "HgN/A
2:00 PM93 °FScattered clouds.9 mph56%29.77 "HgN/A
1:00 PM91 °FScattered clouds.9 mph63%29.80 "HgN/A
12:00 PM91 °FScattered clouds.14 mph59%29.83 "HgN/A
11:00 AM90 °FScattered clouds.14 mph67%29.86 "HgN/A
10:00 AM88 °FPassing clouds.16 mph70%29.86 "HgN/A
9:00 AM84 °FPassing clouds.12 mph74%29.89 "HgN/A
8:00 AM82 °FScattered clouds.5 mph79%29.89 "HgN/A
7:00 AM79 °FPassing clouds.5 mph84%29.86 "HgN/A
6:00 AM75 °FPassing clouds.No wind89%29.86 "HgN/A
5:00 AM75 °FPassing clouds.No wind89%29.83 "HgN/A
4:00 AM75 °FPassing clouds.No wind89%29.83 "HgN/A
1:00 AM79 °FPassing clouds.No wind84%29.86 "HgN/A
12:00 AM79 °FPassing clouds.No wind84%29.86 "HgN/A
11:00 PM
Aug 31
81 °FPassing clouds.5 mph84%29.89 "HgN/A
10:45 PM81 °FWarm.No wind84%29.89 "HgN/A
Weather by CustomWeather, © 2014

See weather overviewHow to use our weather pages